Wind_Speed
56 59 59 59 61 61 60 59 59 60 53 56 55 56 60 59 66 76 65 50 53 54 53 47 49 45 38 38 36 35 34 36 38 37 32 27 26 26 28 25 26 26 25
55 58 60 63 63 63 62 62 60 58 58 55 55 55 61 67 67 69 62 65 52 56 51 49 49 42 41 41 41 37 38 37 38 36 33 26 26 27 28 27 30 28 27
54 57 59 62 63 65 65 64 62 60 59 57 55 56 59 61 67 65 57 42 48 62 50 44 48 48 44 40 41 40 40 40 38 38 38 26 22 27 30 34 31 29 31
56 55 57 59 61 63 63 62 59 57 56 57 54 54 56 51 48 54 51 46 28 39 40 28 40 49 47 48 46 44 45 42 39 34 35 24 26 30 37 33 29 32 30
54 55 56 57 59 55 56 57 57 57 58 58 53 50 48 44 35 34 39 34 36 25 23 24 25 39 51 51 50 42 44 40 37 32 31 30 30 35 33 32 30 34 29
60 59 59 57 57 58 55 54 57 54 55 55 56 52 45 41 39 33 33 33 27 25 32 26 26 26 37 38 38 41 39 42 38 39 36 35 33 37 34 33 33 34 33
70 66 60 67 64 59 61 61 57 56 54 52 46 52 46 46 33 31 32 32 32 34 33 32 25 31 31 30 37 38 43 43 43 43 41 39 37 35 35 33 33 35 36
64 69 75 69 63 68 68 63 65 64 62 55 53 47 46 40 34 31 30 31 28 22 24 27 32 35 31 27 33 34 37 44 49 49 47 46 38 37 39 36 35 35 36
51 56 60 61 69 71 65 65 66 66 62 59 61 57 54 46 40 36 33 32 28 31 32 34 33 38 40 37 32 35 37 44 47 52 53 53 47 39 42 38 35 35 37
40 43 50 53 59 63 69 71 68 68 66 62 59 59 61 55 47 40 37 36 30 33 35 39 39 39 41 43 40 39 36 42 48 44 39 40 43 40 40 38 34 35 35
46 44 41 44 47 53 60 65 72 75 72 67 65 63 61 55 49 46 41 36 36 35 34 37 35 38 44 45 46 46 47 46 42 42 39 42 36 38 39 36 35 33 34
49 48 46 44 42 41 44 50 57 64 67 68 67 65 63 57 48 49 44 32 33 37 38 38 41 34 37 46 49 51 48 46 45 40 44 42 50 41 36 33 34 34 33
47 50 49 48 45 41 43 40 45 50 56 60 59 60 59 58 56 52 54 43 35 35 39 38 40 36 37 39 46 45 52 46 45 46 45 49 37 36 35 33 30 34 35
38 39 45 49 46 45 45 42 41 41 43 50 53 52 49 51 52 51 47 45 43 39 37 40 40 34 33 29 32 41 45 44 40 37 32 33 31 31 33 31 31 34 37
40 41 40 42 45 46 47 46 43 40 38 41 48 51 50 48 48 45 44 44 41 41 39 37 39 38 37 34 22 20 23 24 25 24 21 29 25 34 36 37 35 35 32
33 36 38 40 42 43 47 48 44 41 39 36 42 49 52 55 54 50 47 45 40 42 43 41 35 30 31 26 30 20 21 21 19 14 23 18 11 16 24 27 28 28 31
25 29 32 35 37 43 44 46 47 45 43 37 34 41 52 57 59 58 58 54 52 44 46 45 39 32 23 28 18 24 21 13 10 8 8 11 17 20 23 27 31 30 36
28 27 27 28 32 37 43 38 41 43 43 38 36 34 41 57 61 61 60 58 57 52 51 46 42 36 30 23 18 20 21 15 14 13 14 17 19 22 24 29 31 35 35
29 26 26 25 23 30 37 46 47 38 35 36 36 34 33 37 53 60 61 61 59 51 51 46 42 42 34 25 24 23 20 17 14 14 13 15 18 20 23 25 29 34 38
19 22 24 23 22 23 25 37 47 44 41 39 33 34 35 32 38 53 52 51 59 55 39 43 47 42 37 30 27 25 22 18 17 15 14 14 17 19 23 29 32 32 32
18 15 17 20 22 23 20 26 37 34 35 37 36 36 35 37 38 33 48 49 49 51 41 47 33 43 39 33 31 28 27 24 22 18 18 22 24 25 26 24 24 27 31
23 16 18 20 19 16 16 16 20 23 29 32 32 29 32 32 35 31 29 49 51 55 43 28 45 43 41 37 34 33 33 30 28 24 23 24 25 27 28 30 30 30 28
16 16 15 17 15 11 11 20 15 18 22 26 31 34 32 29 27 30 37 35 42 60 61 41 39 31 35 39 40 37 34 33 31 30 29 29 30 32 32 33 33 34 32
15 13 13 13 12 11 12 12 15 17 16 17 18 20 22 22 22 25 23 23 35 44 45 50 49 44 40 45 42 38 37 35 34 32 32 32 31 33 36 33 36 37 39
12 13 11 10 12 14 10 10 9 9 8 11 15 17 21 25 20 24 22 21 22 24 30 42 43 46 43 43 37 35 34 34 33 33 35 35 36 35 37 36 40 40 38
17 15 13 14 14 17 15 12 12 11 9 9 13 15 16 16 11 25 21 28 22 21 21 24 31 36 29 27 29 31 32 32 33 34 35 36 35 34 35 38 38 35 34
Wind_Direction
242 242 245 247 247 247 250 252 256 260 264 262 260 259 262 263 266 263 253 257 248 248 250 249 246 250 255 258 265 264 275 283 285 287 275 267 273 278 282 276 282 283 287
243 243 243 243 246 248 251 253 253 253 256 261 260 261 265 267 277 286 274 268 247 257 253 243 249 256 248 256 261 265 273 279 282 278 267 255 262 279 275 267 276 275 282
244 245 244 245 246 248 251 253 255 257 257 257 258 262 265 270 274 285 285 290 257 248 246 239 244 244 248 254 261 265 268 280 280 272 268 274 281 269 266 262 272 277 286
244 244 247 245 247 247 249 251 254 256 254 254 256 258 264 267 276 286 280 288 252 235 232 242 251 247 249 253 259 262 268 278 276 274 269 279 281 258 261 268 269 278 286
249 242 244 244 245 248 249 251 251 254 256 255 256 258 260 263 272 284 295 296 272 276 251 247 263 246 244 256 256 259 262 269 267 271 278 274 271 261 259 262 268 277 286
245 244 243 240 243 244 246 248 250 250 252 255 256 256 256 260 267 274 280 288 271 262 265 252 260 252 244 249 251 255 258 265 265 267 272 274 262 260 259 261 270 279 285
246 239 239 240 239 243 242 242 241 241 244 246 250 253 258 262 262 267 264 272 258 256 245 251 249 253 254 245 242 251 260 258 263 267 267 267 264 262 255 255 264 274 283
254 255 249 247 238 239 241 244 248 251 252 250 249 251 254 252 254 256 262 264 269 276 273 266 254 251 253 262 248 247 249 261 261 262 260 260 263 256 250 252 260 272 282
261 260 259 256 255 250 240 242 245 251 253 253 253 255 255 254 252 253 253 260 266 265 262 253 255 253 251 246 254 254 249 259 259 257 256 262 258 246 246 253 263 274 282
268 266 262 257 255 253 251 249 247 246 246 250 251 256 257 256 255 251 255 252 257 264 259 260 263 261 254 257 261 266 259 266 256 260 264 268 254 242 242 254 264 273 280
262 261 263 261 259 256 254 252 250 250 252 253 253 254 257 258 255 249 248 252 256 259 254 258 262 260 255 254 256 262 259 259 255 261 254 249 250 237 239 254 263 267 277
259 257 255 257 257 258 257 254 252 251 250 251 251 251 252 255 255 253 248 255 257 255 258 258 262 262 262 265 259 260 264 259 258 259 260 256 258 244 236 248 260 267 273
256 252 252 251 252 254 256 253 250 248 248 247 246 247 247 249 253 252 254 251 256 245 250 257 265 265 272 267 258 252 252 262 255 260 268 262 240 232 235 242 254 267 271
262 259 253 249 247 247 249 247 248 249 246 240 239 238 231 237 243 244 248 250 254 249 252 252 259 256 255 285 256 248 245 245 248 250 247 233 231 236 236 248 256 268 273
264 258 253 250 248 246 245 245 245 245 245 244 232 228 224 221 223 223 234 243 243 245 250 255 262 262 272 274 253 232 212 217 232 228 231 229 231 244 243 246 250 263 273
268 265 261 253 246 243 244 243 241 241 242 243 238 227 222 217 215 216 218 223 231 233 240 248 251 256 272 260 242 244 248 232 234 242 238 240 249 255 252 264 261 267 267
286 274 265 256 246 241 239 240 239 237 238 237 238 234 224 219 216 218 216 215 217 222 230 237 241 249 253 233 236 258 262 280 282 274 280 261 254 254 261 261 262 265 267
281 277 274 265 250 243 233 233 233 232 235 233 234 235 233 227 226 219 220 216 216 220 226 229 238 239 238 231 240 262 273 279 280 261 251 247 256 259 262 266 270 272 273
276 267 263 269 256 246 237 218 222 228 224 232 229 234 240 240 234 229 221 222 218 217 226 228 230 235 235 239 249 258 263 249 235 232 246 259 259 267 270 271 273 274 276
283 259 259 261 255 257 248 237 229 226 232 231 227 227 232 241 243 237 232 223 224 220 226 226 225 229 225 232 243 253 260 245 232 238 254 267 260 268 275 274 273 281 285
290 272 245 249 246 248 245 243 232 225 221 222 228 230 229 237 242 243 238 228 216 213 211 220 217 226 228 230 236 245 251 244 240 250 259 271 283 284 276 277 286 293 282
282 268 248 247 254 268 243 216 214 233 227 218 221 229 232 238 241 243 238 245 232 210 212 193 219 223 229 232 236 242 249 252 254 257 264 271 276 278 277 277 283 290 293
280 251 236 242 237 246 205 213 198 224 227 228 230 231 231 236 234 237 228 237 235 228 218 221 198 209 223 235 237 241 247 252 256 255 262 268 270 275 277 276 271 277 287
279 230 211 220 206 203 197 194 223 205 203 205 209 218 220 216 228 232 229 235 243 244 227 221 220 224 229 231 236 244 250 253 255 262 269 267 273 272 278 278 279 278 279
120 149 164 182 181 170 176 172 167 172 203 218 215 220 226 228 210 224 221 190 232 239 245 225 226 226 236 234 241 248 252 256 260 264 266 268 271 272 275 274 278 284 290
107 112 127 138 148 148 150 161 179 192 182 197 213 222 217 226 223 219 186 182 201 212 220 235 241 246 245 242 245 249 252 255 259 262 264 266 268 270 272 275 288 290 288
Height
5775 5777 5779 5782 5785 5787 5789 5792 5795 5796 5797 5798 5799 5800 5798 5801 5798 5795 5799 5800 5800 5802 5805 5809 5811 5813 5816 5818 5819 5820 5819 5818 5816 5816 5815 5815 5816 5816 5816 5816 5815 5813 5810
5761 5763 5765 5766 5768 5771 5773 5776 5780 5783 5785 5787 5789 5791 5788 5787 5785 5785 5787 5791 5792 5793 5795 5799 5803 5806 5807 5807 5809 5811 5811 5810 5809 5809 5808 5808 5807 5810 5810 5810 5808 5807 5805
5745 5749 5751 5753 5756 5757 5759 5761 5764 5767 5770 5773 5776 5777 5776 5778 5778 5777 5779 5778 5780 5782 5785 5787 5790 5793 5797 5798 5799 5801 5802 5802 5802 5801 5801 5802 5802 5803 5805 5804 5804 5802 5800
5728 5731 5736 5738 5740 5743 5745 5748 5750 5752 5755 5760 5763 5766 5768 5769 5769 5767 5768 5772 5773 5772 5772 5774 5779 5783 5786 5788 5789 5791 5794 5795 5794 5793 5794 5795 5795 5797 5798 5799 5798 5797 5794
5713 5715 5718 5722 5725 5728 5731 5734 5736 5739 5741 5747 5752 5754 5756 5760 5761 5759 5757 5762 5764 5766 5764 5764 5768 5771 5775 5776 5778 5781 5784 5785 5787 5787 5788 5787 5787 5788 5790 5791 5790 5790 5788
5695 5697 5701 5705 5709 5712 5716 5719 5722 5725 5728 5731 5737 5741 5745 5748 5751 5750 5750 5752 5752 5754 5757 5756 5758 5758 5763 5765 5768 5770 5775 5775 5776 5778 5780 5780 5779 5780 5781 5783 5783 5783 5781
5677 5678 5683 5687 5690 5695 5699 5703 5706 5711 5715 5719 5723 5728 5733 5737 5740 5742 5742 5744 5744 5744 5745 5747 5746 5751 5752 5752 5755 5759 5763 5765 5767 5769 5771 5771 5771 5771 5773 5774 5775 5776 5774
5656 5656 5660 5665 5669 5675 5680 5685 5689 5694 5698 5703 5709 5715 5720 5725 5728 5731 5734 5737 5738 5735 5735 5736 5737 5740 5743 5743 5745 5745 5751 5754 5757 5759 5758 5760 5761 5762 5764 5764 5767 5768 5768
5638 5639 5641 5643 5650 5654 5660 5666 5672 5677 5682 5688 5694 5700 5705 5713 5717 5719 5722 5725 5726 5726 5726 5728 5729 5732 5732 5733 5735 5737 5739 5741 5743 5744 5746 5747 5748 5750 5755 5757 5759 5761 5761
5625 5625 5626 5627 5632 5636 5642 5647 5652 5658 5665 5670 5677 5683 5689 5697 5703 5708 5710 5713 5715 5716 5716 5718 5719 5718 5720 5722 5721 5725 5726 5728 5729 5733 5735 5738 5739 5741 5746 5748 5750 5752 5753
5613 5614 5615 5614 5616 5619 5623 5627 5633 5639 5645 5652 5659 5666 5672 5679 5687 5695 5699 5701 5704 5705 5707 5709 5710 5709 5710 5712 5714 5715 5717 5718 5720 5722 5724 5726 5728 5731 5736 5740 5742 5743 5743
5599 5600 5601 5603 5605 5607 5609 5610 5614 5619 5625 5633 5640 5648 5656 5664 5671 5679 5687 5691 5693 5695 5697 5698 5699 5700 5701 5702 5703 5703 5706 5707 5708 5711 5714 5717 5717 5719 5725 5729 5734 5735 5735
5582 5584 5585 5588 5592 5597 5596 5598 5600 5603 5607 5614 5622 5630 5637 5646 5657 5665 5672 5678 5682 5683 5686 5686 5687 5688 5688 5689 5690 5690 5691 5694 5697 5699 5702 5704 5705 5710 5715 5721 5724 5726 5726
5569 5570 5572 5574 5578 5583 5584 5586 5588 5591 5594 5598 5605 5613 5621 5630 5641 5650 5657 5665 5668 5672 5675 5676 5678 5678 5680 5682 5679 5678 5679 5682 5683 5686 5688 5692 5698 5703 5708 5712 5714 5716 5718
5555 5556 5558 5561 5565 5569 5571 5574 5577 5581 5583 5586 5591 5598 5607 5614 5624 5635 5643 5651 5656 5661 5664 5665 5666 5667 5669 5675 5671 5672 5672 5674 5676 5680 5682 5688 5688 5694 5699 5703 5706 5708 5709
5541 5542 5543 5546 5550 5554 5557 5561 5565 5569 5574 5577 5580 5585 5593 5601 5610 5620 5629 5637 5647 5649 5652 5656 5657 5658 5661 5665 5665 5660 5665 5666 5669 5670 5675 5678 5684 5689 5694 5696 5697 5697 5698
5532 5531 5532 5532 5536 5539 5543 5547 5552 5557 5561 5568 5572 5575 5580 5586 5595 5605 5613 5622 5631 5640 5641 5646 5648 5653 5655 5658 5657 5658 5657 5659 5662 5666 5671 5676 5682 5684 5686 5687 5687 5688 5688
5526 5524 5522 5521 5522 5525 5529 5534 5540 5546 5552 5558 5563 5567 5571 5576 5582 5590 5600 5607 5616 5624 5629 5634 5638 5644 5647 5650 5651 5654 5656 5657 5660 5664 5667 5670 5674 5674 5675 5677 5676 5676 5675
5516 5515 5514 5513 5512 5514 5517 5522 5528 5536 5541 5548 5555 5560 5564 5567 5572 5577 5584 5593 5601 5611 5618 5624 5629 5634 5639 5643 5646 5649 5651 5653 5655 5658 5661 5663 5664 5665 5665 5665 5666 5666 5666
5506 5505 5506 5507 5507 5508 5508 5512 5518 5525 5532 5539 5546 5551 5556 5559 5562 5568 5573 5580 5591 5599 5611 5615 5619 5624 5629 5633 5637 5642 5645 5647 5648 5652 5654 5657 5660 5659 5658 5658 5658 5658 5656
5501 5499 5498 5500 5501 5503 5504 5505 5511 5518 5524 5531 5537 5542 5546 5550 5554 5557 5564 5569 5577 5588 5599 5606 5601 5613 5620 5624 5628 5632 5637 5640 5643 5644 5646 5650 5652 5651 5651 5651 5650 5648 5648
5493 5492 5493 5495 5497 5498 5499 5501 5506 5511 5516 5523 5529 5534 5539 5543 5547 5551 5558 5560 5566 5574 5582 5581 5596 5604 5611 5616 5620 5624 5628 5632 5634 5636 5638 5641 5642 5644 5644 5643 5643 5642 5640
5482 5484 5487 5489 5493 5496 5498 5500 5506 5510 5513 5517 5522 5528 5533 5537 5540 5544 5549 5549 5555 5564 5572 5576 5586 5593 5602 5608 5612 5615 5619 5623 5626 5628 5631 5633 5635 5636 5636 5636 5635 5635 5634
5475 5477 5482 5486 5491 5495 5499 5502 5505 5507 5511 5515 5520 5524 5528 5531 5534 5538 5541 5544 5550 5555 5562 5570 5577 5584 5591 5597 5602 5607 5610 5614 5616 5619 5622 5623 5625 5627 5627 5627 5626 5625 5625
5469 5476 5481 5486 5491 5495 5500 5503 5506 5509 5512 5514 5517 5520 5522 5524 5528 5531 5533 5538 5545 5551 5556 5563 5570 5577 5584 5589 5595 5599 5602 5605 5608 5610 5612 5615 5616 5617 5619 5620 5618 5615 5614
5482 5485 5487 5490 5494 5498 5503 5506 5508 5509 5511 5513 5515 5516 5519 5522 5524 5526 5531 5536 5541 5548 5553 5560 5566 5571 5575 5582 5587 5591 5595 5597 5600 5602 5605 5607 5607 5608 5609 5610 5609 5608 5607